Regional Weather Roundup
Issued by NWS Goodland, KS

Home | Current Version | Previous Version | Text Only | Print | Product List | Glossary Off
Versions: 1 2 3 4 5 6 7 8 9 10 11 12 13 14 15 16 17 18 19 20 21 22 23 24 25 26 27 28 29 30 31 32 33 34 35 36 37 38 39 40 41 42 43 44 45 46 47 48 49 50

000
ASUS43 KGLD 040959
RWRGLD

GOODLAND FORECAST AREA HOURLY WEATHER ROUNDUP
NATIONAL WEATHER SERVICE GOODLAND KS
400 AM MDT MON MAY 04 2015

...OFFICIAL OBSERVATIONS...

CITY           SKY/WX    TMP DP  RH WIND       PRES   REMARKS
GOODLAND KS    LGT RAIN  53  45  74 N6        30.03R
HILL CITY KS   CLOUDY    59  45  59 NE13G21   29.98R
IMPERIAL NEB   CLOUDY    50  37  61 N9        30.04F
MCCOOK NEB     CLOUDY    59  37  44 N18G28    29.97F
AKRON CO       CLOUDY    51  39  63 E13       30.08S
BURLINGTON CO  LGT RAIN  51  47  86 N12       30.04F
LIMON CO       CLOUDY    50  46  86 N3        30.07F
$$

...UNOFFICIAL OBSERVATIONS...

CITY           SKY/WX    TMP DP  RH WIND       PRES   REMARKS
COLBY KS       LGT RAIN  55  48  76 NE9       30.02R
GOVE KS          N/A     59  32  36 MISG        N/A
LENORA KS        N/A     57  32  39 MISG        N/A
NORTON KS      CLOUDY    57  39  51 NE15      29.97R
SHARON SPRINGS   N/A     57  53  87 MISG        N/A
KIT CARSON CO    N/A     53  48  84 MISG        N/A
YUMA CO          N/A     52  38  60 CALM        N/A
$$



USA.gov is the U.S. government's official web portal to all federal, state and local government web resources and services.